| time (UTC) | temp F | wind direction | speed MPH | gust MPH | rain 1hr in | rain 24hr in | rain mn in | humidity % | barometer mb |
| 20260906090002 | 67 | 318 | 1.0 | 3.0 | 0.00 | 0.03 | 0.00 | 99 | 968.7 |
| 20260906084505 | 66 | 318 | 0.0 | 0.0 | 0.00 | 0.03 | 0.00 | 98 | 968.7 |
| 20260906083101 | 66 | 318 | 1.0 | 3.0 | 0.00 | 0.03 | 0.00 | 99 | 968.9 |
| 20260906081601 | 66 | 318 | 1.0 | 3.0 | 0.00 | 0.03 | 0.00 | 98 | 968.8 |
| 20260906080100 | 66 | 319 | 0.0 | 2.0 | 0.00 | 0.03 | 0.00 | 98 | 968.7 |
| 20260906074557 | 67 | 318 | 0.0 | 3.0 | 0.00 | 0.03 | 0.00 | 98 | 968.7 |
| 20260906073056 | 67 | 320 | 0.0 | 1.0 | 0.00 | 0.03 | 0.00 | 98 | 968.8 |
| 20260906071605 | 67 | 331 | 0.0 | 2.0 | 0.00 | 0.03 | 0.00 | 98 | 968.8 |
| 20260906070053 | 67 | 331 | 0.0 | 0.0 | 0.00 | 0.03 | 0.00 | 98 | 968.8 |
| 20260906064551 | 68 | 331 | 0.0 | 1.0 | 0.00 | 0.03 | 0.00 | 97 | 968.9 |
| 20260906063050 | 68 | 331 | 0.0 | 0.0 | 0.00 | 0.03 | 0.00 | 97 | 969.1 |
| 20260906061549 | 68 | 331 | 0.0 | 0.0 | 0.00 | 0.03 | 0.00 | 96 | 969.0 |
| 20260906060047 | 69 | 331 | 0.0 | 3.0 | 0.00 | 0.03 | 0.00 | 97 | 969.1 |
| 20260906054550 | 69 | 80 | 0.0 | 2.0 | 0.00 | 0.03 | 0.00 | 97 | 969.3 |
| 20260906053045 | 69 | 80 | 0.0 | 4.0 | 0.00 | 0.03 | 0.00 | 97 | 969.3 |
| 20260906051550 | 69 | 324 | 0.0 | 2.0 | 0.00 | 0.03 | 0.00 | 96 | 969.4 |
| 20260906050106 | 69 | 324 | 0.0 | 2.0 | 0.00 | 0.03 | 0.00 | 96 | 969.3 |
| 20260906044540 | 70 | 338 | 0.0 | 1.0 | 0.00 | 0.03 | 0.00 | 96 | 969.3 |
| 20260906043040 | 70 | 338 | 0.0 | 0.0 | 0.00 | 0.03 | 0.00 | 96 | 969.2 |
| 20260906041538 | 70 | 338 | 0.0 | 0.0 | 0.00 | 0.03 | 0.00 | 95 | 969.2 |
| 20260906040038 | 70 | 338 | 0.0 | 2.0 | 0.00 | 0.03 | 0.00 | 95 | 969.5 |
| 20260906034541 | 71 | 338 | 0.0 | 0.0 | 0.00 | 0.03 | 0.03 | 94 | 969.4 |
| 20260906033033 | 71 | 338 | 0.0 | 2.0 | 0.00 | 0.03 | 0.03 | 94 | 969.4 |
| 20260906031539 | 71 | 338 | 0.0 | 0.0 | 0.00 | 0.03 | 0.03 | 93 | 969.6 |
| 20260906030033 | 72 | 338 | 0.0 | 0.0 | 0.00 | 0.03 | 0.03 | 92 | 969.7 |
| 20260906024531 | 72 | 338 | 0.0 | 0.0 | 0.00 | 0.03 | 0.03 | 92 | 969.6 |
| 20260906023035 | 73 | 338 | 0.0 | 0.0 | 0.00 | 0.03 | 0.03 | 91 | 969.4 |
| 20260906021530 | 73 | 338 | 0.0 | 1.0 | 0.00 | 0.03 | 0.03 | 91 | 969.5 |
| 20260906020031 | 73 | 338 | 0.0 | 0.0 | 0.00 | 0.03 | 0.03 | 90 | 969.4 |
| 20260906014533 | 74 | 338 | 0.0 | 3.0 | 0.00 | 0.03 | 0.03 | 88 | 969.3 |
| 20260906013030 | 75 | 338 | 0.0 | 2.0 | 0.00 | 0.03 | 0.03 | 87 | 969.2 |
| 20260906011529 | 76 | 46 | 0.0 | 5.0 | 0.00 | 0.03 | 0.03 | 84 | 968.9 |
| 20260906010029 | 77 | 288 | 2.0 | 5.0 | 0.00 | 0.03 | 0.03 | 83 | 968.9 |
| 20260906004528 | 75 | 318 | 0.0 | 2.0 | 0.00 | 0.03 | 0.03 | 85 | 968.7 |
| 20260906003028 | 76 | 318 | 0.0 | 3.0 | 0.00 | 0.03 | 0.03 | 84 | 968.3 |
| 20260906001527 | 76 | 318 | 0.0 | 0.0 | 0.00 | 0.03 | 0.03 | 83 | 968.2 |
| 20260906000030 | 78 | 318 | 0.0 | 1.0 | 0.00 | 0.03 | 0.03 | 80 | 968.1 |
| 20260905234526 | 80 | 318 | 0.0 | 2.0 | 0.00 | 0.03 | 0.03 | 76 | 968.0 |
| 20260905233028 | 81 | 318 | 1.0 | 4.0 | 0.00 | 0.03 | 0.03 | 73 | 968.0 |
| 20260905231525 | 82 | 324 | 0.0 | 3.0 | 0.00 | 0.03 | 0.03 | 73 | 967.8 |
| 20260905230024 | 83 | 300 | 1.0 | 3.0 | 0.00 | 0.03 | 0.03 | 71 | 968.1 |
| 20260905224525 | 84 | 277 | 1.0 | 4.0 | 0.00 | 0.03 | 0.03 | 69 | 967.9 |
| 20260905223023 | 85 | 317 | 3.0 | 7.0 | 0.00 | 0.03 | 0.03 | 66 | 968.0 |
| 20260905221523 | 85 | 284 | 4.0 | 8.0 | 0.00 | 0.03 | 0.03 | 66 | 968.0 |
| 20260905220027 | 86 | 313 | 1.0 | 6.0 | 0.00 | 0.03 | 0.03 | 66 | 968.1 |
| 20260905214521 | 85 | 298 | 4.0 | 7.0 | 0.00 | 0.03 | 0.03 | 66 | 968.2 |
| 20260905213022 | 85 | 342 | 7.0 | 11.0 | 0.00 | 0.03 | 0.03 | 64 | 968.2 |
| 20260905211520 | 85 | 302 | 3.0 | 10.0 | 0.00 | 0.03 | 0.03 | 64 | 968.1 |
| 20260905210019 | 86 | 276 | 4.0 | 9.0 | 0.00 | 0.03 | 0.03 | 63 | 968.1 |
| 20260905204520 | 85 | 322 | 2.0 | 8.0 | 0.00 | 0.03 | 0.03 | 64 | 968.2 |
| 20260905203019 | 84 | 11 | 4.0 | 8.0 | 0.00 | 0.03 | 0.03 | 66 | 968.4 |
| 20260905201524 | 84 | 286 | 4.0 | 9.0 | 0.00 | 0.03 | 0.03 | 65 | 968.3 |
| 20260905200029 | 83 | 278 | 1.0 | 8.0 | 0.00 | 0.03 | 0.03 | 68 | 968.0 |
| 20260905194518 | 82 | 298 | 4.0 | 10.0 | 0.00 | 0.03 | 0.03 | 70 | 968.0 |
| 20260905193026 | 80 | 266 | 5.0 | 15.0 | 0.00 | 0.03 | 0.03 | 72 | 967.6 |
| 20260905191517 | 79 | 282 | 7.0 | 11.0 | 0.00 | 0.03 | 0.03 | 74 | 967.6 |
| 20260905190016 | 78 | 305 | 4.0 | 11.0 | 0.00 | 0.03 | 0.03 | 77 | 967.5 |
| 20260905184521 | 76 | 302 | 4.0 | 10.0 | 0.01 | 0.03 | 0.03 | 80 | 968.2 |
| 20260905183024 | 74 | 224 | 2.0 | 10.0 | 0.01 | 0.03 | 0.03 | 91 | 968.8 |
| 20260905181515 | 73 | 197 | 1.0 | 8.0 | 0.03 | 0.03 | 0.03 | 91 | 967.5 |
| 20260905180012 | 73 | 84 | 0.0 | 9.0 | 0.03 | 0.03 | 0.03 | 87 | 968.4 |
| 20260905174523 | 72 | 5 | 3.0 | 8.0 | 0.02 | 0.02 | 0.02 | 86 | 969.5 |
| 20260905173009 | 75 | 281 | 2.0 | 9.0 | 0.02 | 0.02 | 0.02 | 80 | 970.1 |
| 20260905171508 | 82 | 32 | 11.0 | 27.0 | 0.00 | 0.00 | 0.00 | 64 | 970.7 |
| 20260905170008 | 87 | 294 | 8.0 | 15.0 | 0.00 | 0.00 | 0.00 | 67 | 970.6 |
| 20260905164506 | 89 | 292 | 5.0 | 9.0 | 0.00 | 0.00 | 0.00 | 67 | 970.4 |
| 20260905163008 | 90 | 288 | 4.0 | 13.0 | 0.00 | 0.00 | 0.00 | 66 | 970.4 |
| 20260905161506 | 90 | 342 | 5.0 | 9.0 | 0.00 | 0.00 | 0.00 | 66 | 970.0 |
| 20260905160008 | 90 | 5 | 4.0 | 12.0 | 0.00 | 0.00 | 0.00 | 65 | 970.0 |
| 20260905154504 | 90 | 335 | 1.0 | 10.0 | 0.00 | 0.00 | 0.00 | 67 | 970.1 |
| 20260905153005 | 89 | 298 | 5.0 | 12.0 | 0.00 | 0.00 | 0.00 | 65 | 970.1 |
| 20260905151503 | 90 | 319 | 5.0 | 10.0 | 0.00 | 0.00 | 0.00 | 67 | 970.0 |
| 20260905144600 | 89 | 298 | 5.0 | 10.0 | 0.00 | 0.00 | 0.00 | 69 | 969.8 |
| 20260905143100 | 88 | 302 | 2.0 | 9.0 | 0.00 | 0.00 | 0.00 | 71 | 969.9 |
| 20260905141612 | 89 | 309 | 2.0 | 8.0 | 0.00 | 0.00 | 0.00 | 72 | 969.9 |
| 20260905134606 | 88 | 234 | 0.0 | 6.0 | 0.00 | 0.00 | 0.00 | 73 | 969.7 |
| 20260905133056 | 86 | 282 | 0.0 | 3.0 | 0.00 | 0.00 | 0.00 | 77 | 969.8 |
| 20260905131554 | 83 | 270 | 0.0 | 4.0 | 0.00 | 0.00 | 0.00 | 81 | 969.8 |
| 20260905130041 | 80 | 233 | 0.0 | 0.0 | 0.00 | 0.00 | 0.00 | 89 | 970.1 |
| 20260905124537 | 77 | 233 | 0.0 | 0.0 | 0.00 | 0.00 | 0.00 | 90 | 970.1 |
| 20260905123032 | 74 | 233 | 0.0 | 1.0 | 0.00 | 0.00 | 0.00 | 93 | 970.2 |
| 20260905121529 | 72 | 233 | 0.0 | 1.0 | 0.00 | 0.00 | 0.00 | 95 | 970.3 |
| 20260905120028 | 70 | 237 | 0.0 | 0.0 | 0.00 | 0.00 | 0.00 | 98 | 970.3 |
| 20260905114538 | 68 | 237 | 0.0 | 0.0 | 0.00 | 0.00 | 0.00 | 100 | 970.1 |
| 20260905113025 | 67 | 237 | 0.0 | 2.0 | 0.00 | 0.00 | 0.00 | 100 | 970.0 |
| 20260905111524 | 66 | 237 | 0.0 | 2.0 | 0.00 | 0.00 | 0.00 | 99 | 969.9 |
| 20260905110024 | 66 | 237 | 0.0 | 1.0 | 0.00 | 0.00 | 0.00 | 99 | 969.9 |
| 20260905104523 | 66 | 237 | 0.0 | 2.0 | 0.00 | 0.00 | 0.00 | 99 | 969.8 |
| 20260905103031 | 66 | 237 | 0.0 | 1.0 | 0.00 | 0.00 | 0.00 | 99 | 969.7 |
| 20260905101522 | 67 | 237 | 0.0 | 0.0 | 0.00 | 0.00 | 0.00 | 99 | 969.9 |
| 20260905100019 | 67 | 237 | 0.0 | 2.0 | 0.00 | 0.00 | 0.00 | 98 | 969.7 |
| 20260905094519 | 67 | 237 | 0.0 | 2.0 | 0.00 | 0.00 | 0.00 | 98 | 969.7 |
| 20260905093018 | 67 | 237 | 0.0 | 2.0 | 0.00 | 0.00 | 0.00 | 98 | 969.6 |
| 20260905091516 | 67 | 237 | 0.0 | 2.0 | 0.00 | 0.00 | 0.00 | 98 | 969.6 |